This is the latest recevied weather packets stored in our database for station/object N2XGL-1. If no packets are shown the sender has not sent any weather packets the latest 10 day(s).
| Time | Temp. | Humidity | Pressure | Rain* | Wind** | Luminosity | Snow |
|---|---|---|---|---|---|---|---|
| 1777861339 | 17.22° C | 30% | 1001.2 hPa | 0 mm | - | - | - |
| 1777860748 | 17.78° C | 29% | 1001.2 hPa | 0 mm | - | - | - |
| 1777860253 | 17.78° C | 29% | 1001.1 hPa | 0 mm | - | - | - |
| 1777859769 | 18.33° C | 28% | 1001.1 hPa | 0 mm | - | - | - |
| 1777859218 | 18.89° C | 28% | 1001.1 hPa | 0 mm | - | - | - |
| 1777859114 | 18.89° C | 28% | 1000.9 hPa | 0 mm | - | - | - |
| 1777858728 | 18.89° C | 28% | 1000.9 hPa | 0 mm | - | - | - |
| 1777858202 | 19.44° C | 28% | 1000.9 hPa | 0 mm | - | - | - |
| 1777856639 | 20° C | 26% | 1001.2 hPa | 0 mm | - | - | - |
| 1777855508 | 20.56° C | 26% | 1001.4 hPa | 0 mm | - | - | - |
| 1777854980 | 20.56° C | 27% | 1001.4 hPa | 0 mm | - | - | - |
| 1777854383 | 21.11° C | 26% | 1001.4 hPa | 0 mm | - | - | - |
| 1777853888 | 21.11° C | 26% | 1001.7 hPa | 0 mm | - | - | - |
| 1777853294 | 21.11° C | 26% | 1001.8 hPa | 0 mm | - | - | - |
| 1777852721 | 20.56° C | 23% | 1001.8 hPa | 0 mm | - | - | - |
| 1777852143 | 20.56° C | 26% | 1001.8 hPa | 0 mm | - | - | - |
| 1777851916 | 20.56° C | 24% | 1002.1 hPa | 0 mm | - | - | - |
| 1777851583 | 20.56° C | 24% | 1002.1 hPa | 0 mm | - | - | - |
| 1777851311 | 21.11° C | 23% | 1002.2 hPa | 0 mm | - | - | - |
| 1777851073 | 21.11° C | 23% | 1002.2 hPa | 0 mm | - | - | - |
| 1777850715 | 20.56° C | 21% | 1002.1 hPa | 0 mm | - | - | - |
| 1777850543 | 20.56° C | 21% | 1002.1 hPa | 0 mm | - | - | - |
| 1777849978 | 21.11° C | 24% | 1001.8 hPa | 0 mm | - | - | - |
| 1777848921 | 21.11° C | 25% | 1001.7 hPa | 0 mm | - | - | - |
| 1777848828 | 21.11° C | 25% | 1001.7 hPa | 0 mm | - | - | - |
* Rain latest hour (hover to see other rain measurements)
** Current wind speed in m/s (hover to see current wind gust speed)